Location: Newark
(54.4000°N, 32.4500°E)
Time: 00:13:33
(UTC+00:00)

Envisat - Pass Details

Date: 18 January 2020
Orbit: 764 x 766 km, 98.1° (Epoch: 27 February)

Event Time Altitude Azimuth Distance (km) Brightness Sun altitude
Rises 15:09:54 0° 157° (SSE) 3,225 6.2 -9.6°
Reaches altitude 10° 15:12:11 10° 156° (SSE) 2,303 5.5 -9.9°
Maximum altitude 15:17:15 75° 71° (ENE) 798 2.9 -10.6°
Drops below altitude 10° 15:22:22 10° 347° (NNW) 2,319 5.4 -11.3°
Sets 15:24:41 0° 346° (NNW) 3,249 6.2 -11.6°
